Regional Weather Roundup
Issued by NWS

Home | Current Version | Previous Version | Text Only | Print | Product List | Glossary Off
Versions: 1 2 3 4 5 6 7 8 9 10 11 12 13 14 15 16 17 18 19 20 21 22 23 24 25 26 27 28

000
ASUS45 KTFX 221010
RWRMT
MONTANA REGIONAL WEATHER ROUNDUP
NATIONAL WEATHER SERVICE GREAT FALLS MT
400 AM MDT FRI SEP 22 2017

NOTE: "FAIR" INDICATES FEW OR NO CLOUDS BELOW 12000 FEET WITH NO
SIGNIFICANT WEATHER AND/OR OBSTRUCTIONS TO VISIBILITY.

MTZ001>007-043-221100-
WEST OF THE DIVIDE

CITY           SKY/WX    TMP DP  RH WIND       PRES   REMARKS
KALISPELL      CLOUDY    44  32  62 N14       30.00S
MISSOULA       CLOUDY    40  36  86 W6        29.94F
BUTTE          LGT SNOW  36  33  89 N5        29.89F FOG
MULLAN PASS    CLOUDY    31  29  92 CALM      29.93F FOG
ANACONDA         N/A     36  28  75 N17G23    29.91S WCI  25
DEER LODGE       N/A     37  28  70 N13       29.96S WCI  29
EUREKA           N/A     39  37  93 CALM      30.04
HAMILTON         N/A     39  34  81 N3        29.90F
LIBBY            N/A     39  37  93 CALM      30.02S
$$

MTZ008-052>055-221100-
SOUTHWEST MONTANA

CITY           SKY/WX    TMP DP  RH WIND       PRES   REMARKS
BOZEMAN        CLOUDY    38  37  97 SW8       29.86F
DILLON         MIX PCPN  35  32  88 NE15      29.82F WCI  25
W YELLOWSTONE  LGT SNOW  32  32 100 MISG      29.80S
ENNIS          CLOUDY    34  34 100 N17G26    29.84F WCI  23
THREE FORKS      N/A     40  36  86 N5        29.89F
TWIN BRIDGES     N/A     36  31  82 N23       29.82F WCI  24
$$

MTZ009-010-012-014-046-048-049-054-221100-
EAST SLOPES AND CENTRAL MONTANA

CITY           SKY/WX    TMP DP  RH WIND       PRES   REMARKS
CUT BANK       CLOUDY    34  32  92 N14       30.06F WCI  25
GREAT FALLS    LGT RAIN  37  31  78 N12       30.05S WCI  29
MALMSTROM AFB  LGT RAIN  37  34  87 NE14      30.06S WCI  29
HELENA         CLOUDY    39  33  79 N12       29.97F WCI  32
BOWMANS CRNR   FLURRIES  31  31  99 N14       30.01F WCI  21
CHOTEAU          N/A     36  30  80 N12       30.08R WCI  27
FAIRFIELD      LGT RAIN  35  31  84 N13       30.05F WCI  26
POWER          LGT RAIN  35  31  87 N12       30.05S WCI  26
RAYNESFORD     LGT RAIN  35  34  96 N6        30.02S WCI  30
ULM            LGT RAIN  37  33  88 N10       30.05R WCI  29
$$

MTZ011-013-016-021-045-047-050-051-221100-
NORTH CENTRAL MONTANA

CITY           SKY/WX    TMP DP  RH WIND       PRES   REMARKS
HAVRE          CLOUDY    38  33  82 W5        30.05S
LEWISTOWN      LGT SNOW  33  33 100 SE7       30.02R FOG     WCI  27
N BAR RANCH    LGT SNOW  32  32 100 CALM      30.03R
CHINOOK          N/A     37  32  81 W5        30.05R
DENTON         RAIN      37  34  90 NW6       30.01R WCI  32
GEYSER         FLURRIES  34  33  96 N9        30.02R WCI  27
GRASS RANGE    FLURRIES  36  35  96 NE7       30.00R WCI  30
JUDITH GAP     LGT SNOW  32  31  96 SW12      30.00R WCI  23
WINIFRED       LGT RAIN  38  36  91 E7        30.02R
$$

MTZ017>020-022>027-061-062-221100-
NORTHEAST MONTANA

CITY           SKY/WX    TMP DP  RH WIND       PRES   REMARKS
GLASGOW        CLOUDY    47  34  60 CALM      29.98S
JORDAN           N/A     44  41  89 N9        29.96F
SIDNEY         CLOUDY    48  38  68 N12       29.94S
WOLF POINT     LGT RAIN  46  39  76 N7        29.97S
MALTA          CLOUDY    45  30  57 N8        30.01R
POPLAR           N/A     46  37  71 N5        29.97R
$$

MTZ028>42-056>058-221100-
SOUTHCENTRAL AND SOUTHEAST MONTANA

CITY           SKY/WX    TMP DP  RH WIND       PRES   REMARKS
BAKER          CLOUDY    51  35  54 N14       29.89S
BILLINGS       CLOUDY    40  38  93 N14       29.96R
LIVINGSTON     LGT SNOW  33  32  96 E16       29.91S FOG     WCI  23
MILES CITY     CLOUDY    49  36  61 N14       29.89F
BIG TIMBER     FOG       32  32 100 NE13      29.95F VSB 1/4 WCI  22
HARLOWTON      LGT SNOW  32  31  98 MISG      30.01R VSB 7/8
LAUREL           N/A     39  37  93 NW10      29.98R FOG
$$

REGIONAL REPORTS...DAKOTAS

CITY           SKY/WX    TMP DP  RH WIND       PRES   REMARKS
WILLISTON      CLOUDY    46  39  76 N15       29.94R
MINOT          CLOUDY    48  40  73 N12       29.90R
DICKINSON      CLOUDY    51  38  60 N18G25    29.83F
BEACH          CLOUDY    46  39  76 N10       29.93F
CROSBY         CLOUDY    43  41  93 NW10      29.96S
TIOGA          MOCLDY    45  43  93 NE8       29.96R
WATFORD CITY   MOCLDY    46  41  81 N13G20    29.92F
BISMARCK       CLEAR     56  47  71 NE12      29.80R
GRAND FORKS    CLOUDY    56  53  90 N13       29.78S
FARGO          CLOUDY    66  66 100 N10       29.71F FOG
BUFFALO SD       N/A     51  36  56 NE23G29   29.73F
$$

REGIONAL REPORTS...WYOMING/IDAHO/WASHINGTON

CITY           SKY/WX    TMP DP  RH WIND       PRES   REMARKS
GILLETTE       CLOUDY    41  35  79 NW16      29.84S
SHERIDAN       CLOUDY    44  39  82 W12       29.91F
BUFFALO WY     CLOUDY    43  33  68 NW13      29.90F
CODY           LGT SNOW  32  30  93 NW7       29.93R FOG     WCI  26
IDAHO FALLS    LGT RAIN  39  39 100 SW9       29.81F FOG
SALMON         LGT RAIN  44  37  76 CALM      29.83S
BOISE          CLOUDY    45  38  76 NW8       29.85S
SPOKANE        PTCLDY    40  39  97 CALM      29.97S
$$

REGIONAL REPORTS...ALBERTA

CITY           SKY/WX    TMP DP  RH WIND       PRES   REMARKS
EDMONTON       CLOUDY    37  37 100 N7        30.10R
CALGARY        CLOUDY    34  32  93 N8        30.10R WCI  27
LETHBRIDGE     LGT RAIN  37  34  87 NW10      30.12R WCI  30
MEDICINE HAT   CLOUDY    41  36  81 W5        30.09R
$$

REGIONAL REPORTS...SASKATCHEWAN

CITY           SKY/WX    TMP DP  RH WIND       PRES   REMARKS
SWIFT CURRENT  CLOUDY    36  34  93 W8        30.01S WCI  29
REGINA         CLOUDY    37  34  87 NW3       30.00R
SASKATOON      PTCLDY    37  36  93 NW3       30.04R
$$




USA.gov is the U.S. government's official web portal to all federal, state and local government web resources and services.